Location: Northam
(31.6525°S, 116.6655°E)
Time: 19:10:11
(UTC+08:00)

AAUSAT CUBESAT 2 - Pass Details

Date: 28 July 2021
Orbit: 572 x 587 km, 97.5° (Epoch: 18 September)

Event Time Altitude Azimuth Distance (km) Brightness Sun altitude
Rises 18:11:22 0° 183° (S) 2,849 ? -8.0°
Reaches altitude 10° 18:13:48 10° 195° (SSW) 1,940 ? -8.5°
Maximum altitude 18:17:19 27° 252° (WSW) 1,168 ? -9.3°
Drops below altitude 10° 18:20:49 10° 309° (NW) 1,917 ? -10.0°
Sets 18:23:13 0° 322° (NW) 2,807 ? -10.5°
